This demonstration page uses our WeatherBlox Daily Observations layout. Learn more.

Left ArrowRight Arrow

Hourly Observations for October 4, 2021

Temp ( °F °C ) Dew Point ( °F °C ) Humidity (%) Winds ( mph kmh ) Pressure ( in mb ) Visibility ( mi km ) Precip ( " mm )
12:53 am 00:53 Cloudy 69 20.6 67 19.4 93 93 Calm 29.98 1015 10 16 0.00 0.00
1:53 am 01:53 Cloudy 69 20.6 67 19.4 93 93 Calm 29.97 1015 9 14 0.00 0.00
2:53 am 02:53 Cloudy 69 20.6 67 19.4 93 93 Calm 29.97 1015 10 16 0.00 0.00
3:53 am 03:53 Partly Cloudy 68 20 67 19.4 96 96 Calm 29.96 1014 10 16 0.00 0.00
4:28 am 04:28 Cloudy 68 20 67 19.4 96 96 SSW 5 7 29.97 1015 10 16 0.00 0.00
4:53 am 04:53 Cloudy 68 20 67 19.4 96 96 Calm 29.95 1014 10 16 0.00 0.00
5:10 am 05:10 Cloudy 68 20 67 19.4 96 96 Calm 29.96 1014 10 16 0.00 0.00
5:53 am 05:53 Cloudy 68 20 67 19.4 96 96 SSE 3 6 29.95 1014 10 16 0.00 0.00
6:53 am 06:53 Cloudy with Light Rain 68 20 67 19.4 96 96 Calm 29.96 1015 9 14 0.00 0.00
7:53 am 07:53 Cloudy 68 20 67 19.4 96 96 SSW 5 7 29.97 1015 10 16 0.00 0.00
8:53 am 08:53 Cloudy with Light Rain 68 20 67 19.4 96 96 Calm 29.98 1015 4 6 0.00 0.00
9:53 am 09:53 Cloudy with Mist and Fog 69 20.6 68 20 96 96 Calm 30.00 1016 4 6 0.00 0.00
10:53 am 10:53 Cloudy 70 21.1 68 20 93 93 SW 3 6 30.00 1016 10 16 0.00 0.00
11:15 am 11:15 Cloudy 71 21.7 68 20 90 90 SSW 3 6 30.00 1016 10 16 0.00 0.00
11:28 am 11:28 Mostly Cloudy 72 22.2 68 20 87 87 Calm 29.99 1016 10 16 0.00 0.00
11:53 am 11:53 Mostly Cloudy 74 23.3 67 19.4 79 79 S 7 11 30.00 1016 10 16 0.00 0.00
12:35 pm 12:35 Mostly Cloudy 75 23.9 68 20 79 79 SSE 7 11 30.00 1016 10 16 0.00 0.00
12:53 pm 12:53 Mostly Cloudy 74 23.3 67 19.4 79 79 S 5 7 30.00 1016 10 16 0.00 0.00
1:01 pm 13:01 Mostly Cloudy 76 24.4 68 20 77 77 S 5 7 29.98 1015 10 16 0.00 0.00
1:53 pm 13:53 Mostly Cloudy 77 25 67 19.4 71 71 VRB 6 9 29.97 1015 10 16 0.00 0.00
2:12 pm 14:12 Mostly Cloudy 77 25 65 18.3 66 66 VRB 6 9 29.95 1014 10 16 0.00 0.00
2:32 pm 14:32 Partly Cloudy 77 25 66 18.9 69 69 SSW 3 6 29.93 1014 10 16 0.00 0.00
2:53 pm 14:53 Mostly Cloudy 77 25 66 18.9 69 69 SSW 7 11 29.94 1014 10 16 0.00 0.00
3:03 pm 15:03 Partly Cloudy 78 25.6 67 19.4 69 69 S 7 11 29.93 1014 10 16 0.00 0.00
3:53 pm 15:53 Mostly Sunny 76 24.4 67 19.4 74 74 S 6 9 29.95 1014 10 16 0.00 0.00
4:53 pm 16:53 Partly Cloudy 74 23.3 67 19.4 79 79 S 10 17 29.95 1014 10 16 0.00 0.00
5:53 pm 17:53 Partly Cloudy with Light Rain 72 22.2 68 20 87 87 SSW 5 7 29.96 1015 10 16 0.00 0.00
6:30 pm 18:30 Cloudy 71 21.7 67 19.4 87 87 SW 5 7 29.95 1014 10 16 0.00 0.00
6:53 pm 18:53 Cloudy with Light Rain 71 21.7 68 20 90 90 S 3 6 29.95 1014 10 16 0.00 0.00
7:05 pm 19:05 Cloudy 71 21.7 68 20 90 90 S 3 6 29.95 1014 10 16 0.00 0.00
7:53 pm 19:53 Mostly Cloudy 70 21.1 67 19.4 90 90 SSW 3 6 29.97 1015 10 16 0.00 0.00
8:00 pm 20:00 Mostly Cloudy 70 21.1 67 19.4 90 90 SW 3 6 29.96 1015 10 16 0.00 0.00
8:53 pm 20:53 Mostly Clear 70 21.1 67 19.4 90 90 Calm 30.00 1016 10 16 0.00 0.00
9:53 pm 21:53 Partly Cloudy 68 20 67 19.4 96 96 Calm 30.01 1016 10 16 0.00 0.00
10:30 pm 22:30 Mostly Cloudy 70 21.1 67 19.4 90 90 VRB 3 6 30.00 1016 10 16 0.00 0.00
10:53 pm 22:53 Mostly Cloudy with Light Rain 69 20.6 67 19.4 93 93 SE 5 7 30.01 1016 10 16 0.00 0.00
11:09 pm 23:09 Mostly Cloudy with Light Rain 69 20.6 67 19.4 93 93 SE 3 6 30.02 1016 10 16 0.00 0.00
11:53 pm 23:53 Mostly Cloudy with Light Rain 68 20 67 19.4 96 96 Calm 30.01 1016 10 16 0.00 0.00

Powered by AerisWeather